ORBCOMM FM 9

Satellite information

Favourite Embed

Satellite Type and Status

PAYLOADIN ORBIT

Key statistics

Satellite ORBCOMM FM 9 at a glance.

Uptime

10058

Days in orbit

Revolutions

≈ 14.5

Per day

Orbit

LEO

Low Earth Orbit

Inclination

45.0

Latest

Satellite identification and parameters

Extended collection of information and parameters for ORBCOMM FM 9.

Object identification

Identified? True

Debris? False

Object name: ORBCOMM FM 9

International designator: 1997-084E

Object number (NORAD): 25116

Object ID (CCSDS): 25116

Country: ORBITAL TELECOMMUNICATIONS SATELLITE (GLOBALSTAR) (ORB)

Current information (Y/N): Y

RCS size: MEDIUM

Orbital parameters

Period: 99.634 minutes

Inclination: 45.0153 deg

SMA: 7119.22 km

Apoapsis: 746.039 km

Periapsis: 736.132 km

RAAN: 278.1967 deg

Eccentricy: 0.0006958

Argument of periapsis: 282.5965 deg

Mean anomaly: 77.4108 deg

Mean motion: 14.45287045 rev/day

Mean motion (dot): 0.00000763 rev/day2

B* drag term: 0.00025616 1/REarth

Two-line elements (TLE)

Creation date: July 6, 2025, 10:26 p.m.

Reference frame: TEME

Reference center: EARTH

Epoch: July 6, 2025, 3:41 p.m. UTC

TLE line 0: 0 ORBCOMM FM 9

TLE line 1: 1 25116U 97084E 25187.65394306 .00000763 00000-0 25616-3 0 9991

TLE line 2: 2 25116 45.0153 278.1967 0006958 282.5965 77.4108 14.45287045444324

Live tracking on map

Real-time ground track for satellite ORBCOMM FM 9.

In-orbit conjunctions

There are no conjunctions computed for ORBCOMM FM 9, at the moment. Check back to stay up to date, as we update our databases every day.

Go to all conjunctions

Associated space launch

ORBCOMM FM 9 was lifted into orbit during the mission ‘Pegasus XL HAPS | Orbcomm-A1 - A8’, on board a Pegasus XL HAPS space rocket.

The launch took place on Dec. 23, 1997, 7:11 p.m. from Wallops Flight Facility.

For more information about the launch, click the button.

Launch to space Pegasus XL HAPS | Orbcomm-A1 - A8
Pegasus XL HAPS | Orbcomm-A1 - A8

Agency: N/A

Status: Launch Successful

Launch date: Dec. 23, 1997, 7:11 p.m. UTC

Rocket: Pegasus XL HAPS

Launch pad: Wallops Flight Facility

Location: Air launch to orbit

...

Latest news about this satellite

There are no fresh news available about this satellite. Check back as we update our databases every day.


Newsletter sign-up

Weekly statistics, charts and insights to help you stay on top of the space industry.